Wind_Speed
2 2 3 3 3 3 3 3 3 4 4 4 5 5 5 4 4 4 4 4 5 4 5 5 5 5 5 5 4 4 4 4 4 5 6 6 7 6 6 6 6 7 7 7 6 6 6 6 7
3 3 3 4 4 3 3 4 4 4 5 5 5 5 5 4 4 4 5 5 5 5 5 6 5 5 5 5 5 5 4 4 5 5 6 6 6 6 6 6 6 7 7 7 7 7 7 7 7
3 4 3 4 4 4 4 4 4 4 5 5 5 5 5 5 5 5 5 5 5 5 5 6 6 6 6 6 6 5 5 5 5 6 6 6 6 7 7 7 7 7 8 7 8 7 8 8 8
4 4 3 4 5 4 4 5 5 5 5 5 5 5 6 6 5 6 6 5 5 5 6 6 6 6 6 6 6 5 6 6 6 6 7 7 7 7 7 8 8 8 8 8 8 8 7 8 9
4 4 4 4 4 5 4 5 5 5 5 5 5 5 5 6 6 6 6 5 5 5 6 6 6 6 7 7 6 6 6 6 7 7 7 7 7 7 8 8 9 9 9 9 9 9 8 8 9
4 3 4 4 3 4 4 4 4 4 4 5 5 5 5 6 6 6 6 6 6 6 6 6 6 6 6 7 7 7 7 8 8 9 8 8 8 8 9 9 9 9 9 9 10 10 10 10 9
4 3 4 4 4 4 4 4 4 4 4 5 5 6 6 6 6 6 6 6 6 6 7 7 7 7 8 8 9 9 9 9 9 9 9 10 10 10 10 10 11 11 10 10 11 11 10 10 11
4 4 4 4 4 4 4 5 4 4 4 5 5 6 6 6 6 6 6 7 7 7 7 7 8 8 8 9 9 9 9 9 9 9 10 10 10 10 10 11 11 11 11 11 11 11 11 11 11
4 4 4 4 4 4 4 5 4 4 5 5 5 6 6 6 6 6 7 7 7 7 7 8 8 9 10 10 10 10 10 10 10 10 10 10 11 10 11 11 11 11 11 12 12 12 12 12 12
4 4 4 4 4 4 5 5 4 4 5 5 5 6 6 6 6 7 7 7 7 7 7 8 9 9 10 10 10 10 10 11 11 11 10 11 11 11 11 11 11 11 11 12 12 13 13 13 14
4 4 4 4 4 4 4 5 5 5 5 5 6 6 6 7 6 7 8 8 8 8 8 8 8 8 9 9 11 11 12 12 12 11 11 11 12 12 11 11 12 12 12 12 12 13 13 14 14
5 5 5 5 5 5 5 5 5 6 6 6 6 6 7 7 6 7 8 8 8 9 9 9 9 9 9 10 11 12 12 13 13 12 12 12 12 12 12 12 12 12 12 12 12 13 14 14 14
5 5 5 5 5 5 6 5 6 7 7 7 7 7 7 7 7 8 8 9 9 9 10 10 10 10 10 10 11 12 13 13 14 13 13 13 13 13 13 12 13 14 14 14 14 14 14 14 14
6 6 5 6 6 6 6 6 6 7 8 8 8 8 8 8 8 9 9 9 9 10 10 10 10 10 11 11 12 13 14 13 14 14 14 14 14 13 13 13 13 14 14 14 15 15 15 14 14
6 6 6 6 6 7 7 7 7 8 8 8 8 8 8 9 9 10 10 10 11 11 10 10 11 11 11 11 12 13 14 14 14 14 14 14 14 14 15 14 14 14 15 15 14 15 15 15 16
6 7 8 7 7 8 8 8 8 8 8 8 9 9 9 10 10 10 10 10 11 11 11 11 11 11 12 12 13 13 14 14 14 14 14 14 15 15 15 15 14 14 15 15 15 15 16 16 16
7 8 9 9 9 9 9 8 9 8 9 9 9 10 10 11 10 10 10 11 11 11 11 12 12 12 13 13 13 14 14 14 14 14 14 15 15 15 15 15 15 15 14 15 16 16 16 16 16
8 9 10 10 10 10 10 9 9 10 10 10 10 11 11 11 12 12 12 12 12 12 13 13 13 13 13 14 14 14 14 15 14 14 15 16 16 16 15 15 15 15 15 15 16 16 16 16 16
10 10 10 11 11 11 11 11 11 11 10 11 11 12 12 12 12 13 14 13 13 14 13 13 14 14 14 14 14 14 15 15 15 16 16 16 16 16 15 15 15 15 15 15 16 17 17 16 16
10 11 11 12 12 12 12 12 13 12 12 13 12 13 14 14 13 14 15 14 14 13 13 14 15 15 15 16 16 16 16 16 16 16 16 16 16 16 16 16 16 17 16 16 16 16 17 17 16
12 12 12 13 13 13 13 13 13 13 13 14 14 14 14 15 15 15 16 16 15 14 14 15 15 16 16 16 17 17 16 16 17 17 16 17 16 16 17 17 17 17 17 17 17 17 17 17 17
13 13 13 13 13 13 14 14 13 14 14 14 15 15 15 15 16 16 16 16 16 14 15 15 16 16 16 16 17 17 16 16 17 16 17 16 17 17 17 17 17 18 18 18 18 17 17 17 17
13 13 13 13 13 13 14 14 14 14 14 14 15 15 15 16 17 16 17 16 16 15 15 16 16 16 16 16 16 17 17 17 17 17 17 17 17 17 17 17 17 18 18 18 18 18 17 17 17
12 12 12 12 13 13 13 15 14 16 15 15 16 16 16 17 17 17 17 16 16 15 15 16 16 16 16 16 16 17 17 17 17 18 18 17 17 18 18 18 18 18 18 18 18 18 17 17 17
11 11 11 12 11 12 13 14 15 16 16 17 17 17 17 18 18 18 17 17 17 17 16 16 17 17 17 17 17 17 17 18 18 18 18 18 17 18 18 18 18 18 17 18 18 18 18 18 18
12 12 11 11 11 13 13 14 15 17 17 18 18 18 17 17 17 17 17 17 17 17 17 18 17 17 18 18 18 18 18 18 18 18 18 18 18 18 18 18 18 17 17 18 18 18 18 18 18
13 13 13 13 12 14 15 15 17 17 18 18 18 18 18 18 18 17 17 17 17 17 18 18 18 18 19 19 19 19 19 19 19 19 19 19 19 19 19 18 18 18 18 18 18 18 19 19 19
14 13 14 15 14 14 14 15 17 18 18 19 18 18 18 19 19 19 18 18 18 18 19 20 20 20 20 20 20 20 20 20 20 19 19 19 20 20 19 19 19 19 19 19 19 20 20 20 21
15 15 15 16 15 15 14 15 18 19 21 21 20 20 20 19 19 19 19 19 19 20 20 20 20 21 21 21 21 21 21 21 21 20 19 19 20 20 20 20 20 19 20 21 21 21 21 22 22
17 17 17 17 16 17 18 17 19 21 22 22 22 22 21 21 21 21 21 21 21 21 21 21 21 21 22 22 22 22 22 21 21 21 21 20 20 21 21 21 21 21 21 22 22 22 23 23 23
Wind_Direction
321 304 298 291 281 272 280 282 280 281 282 282 278 278 279 276 278 279 278 277 279 276 263 262 269 277 279 276 276 277 274 268 259 251 247 247 248 247 244 247 248 249 249 247 245 240 236 224 218
309 296 295 287 284 287 291 288 284 280 277 277 272 274 277 275 273 276 277 277 277 273 267 267 270 271 274 275 276 277 275 269 266 265 263 257 254 251 248 249 254 255 251 252 248 244 238 231 228
291 289 289 281 283 295 294 296 284 278 278 274 271 270 269 270 267 270 275 274 274 275 272 272 270 268 269 277 283 280 273 275 274 271 267 264 258 254 252 252 253 256 255 254 249 245 241 237 232
291 292 283 276 281 287 290 292 289 283 279 273 269 265 265 265 269 268 271 273 274 274 273 274 267 263 265 273 278 278 280 279 275 277 272 264 260 257 254 254 255 257 257 254 252 249 244 243 242
284 289 283 279 288 292 289 289 292 284 277 274 270 266 265 265 267 269 273 272 279 279 276 274 271 266 266 270 276 280 282 281 279 282 278 269 267 266 260 257 257 259 261 258 255 251 245 247 248
284 287 285 288 286 285 286 290 283 280 280 278 278 274 271 272 271 271 273 276 276 276 277 275 273 272 269 270 272 275 279 281 282 283 282 277 277 276 272 265 263 262 261 260 258 252 249 252 254
275 277 280 275 271 280 284 281 278 282 285 284 283 282 280 275 274 274 275 279 280 279 277 277 272 272 271 272 277 282 284 289 289 284 282 281 281 279 276 273 268 265 264 261 258 256 256 256 257
270 263 268 271 268 279 285 285 286 280 281 286 289 290 286 281 282 279 278 281 280 278 279 278 275 273 272 274 279 283 286 289 290 286 282 281 281 280 278 277 273 269 267 264 259 258 257 255 255
269 269 267 278 283 280 282 287 288 281 279 287 292 294 293 288 285 284 283 282 281 283 282 280 277 275 275 277 277 281 284 287 288 289 284 279 278 278 278 277 274 272 268 265 261 259 260 258 257
265 266 273 284 288 286 286 291 288 284 281 283 286 290 292 287 287 286 284 284 285 287 288 285 285 283 277 276 278 281 283 284 285 286 284 278 278 278 275 273 271 270 268 267 265 261 259 260 261
271 272 277 278 282 280 280 285 287 288 286 288 287 292 296 293 291 290 289 288 290 290 293 293 290 289 286 282 282 283 284 286 285 284 283 280 276 274 273 274 272 269 268 267 267 264 262 261 262
266 275 275 272 274 275 281 282 283 290 289 293 294 297 299 299 295 298 296 294 294 293 294 293 292 289 287 287 286 288 289 288 288 285 282 280 276 272 271 272 272 273 270 268 267 266 264 261 262
263 264 269 270 271 273 277 280 284 288 290 294 296 299 302 304 305 302 298 299 300 299 298 295 291 289 288 288 289 290 291 288 287 286 284 281 280 276 273 273 273 273 272 270 270 269 268 263 265
263 263 269 273 274 272 276 278 278 282 287 290 293 296 301 304 302 299 297 299 299 299 298 297 294 291 291 291 290 292 290 289 288 286 286 284 284 282 276 275 276 276 275 273 272 270 271 269 269
259 265 271 276 278 279 277 276 277 281 283 283 287 293 297 298 300 299 298 299 300 300 298 299 299 297 295 293 292 294 294 290 288 287 286 285 284 283 279 276 277 278 276 274 273 272 271 270 271
263 267 273 277 283 286 284 277 277 280 282 283 284 289 293 295 295 298 299 298 298 299 298 298 299 299 299 297 297 297 296 294 293 291 286 284 284 284 281 278 279 277 276 274 272 272 274 273 270
260 270 276 275 277 284 287 287 283 281 284 284 284 287 291 295 294 293 295 300 298 300 301 299 299 300 299 299 299 299 297 295 294 291 288 286 285 284 283 279 278 278 276 275 273 273 274 274 270
265 267 271 275 276 279 283 286 288 288 287 286 285 288 290 290 292 291 290 293 298 300 299 299 300 300 301 299 298 298 297 294 293 291 290 289 287 284 282 281 279 277 277 276 276 275 274 273 271
255 263 267 274 276 276 279 283 287 288 290 291 290 288 289 287 287 289 289 289 294 293 296 299 300 302 302 302 300 298 296 294 292 290 288 287 286 284 283 282 281 279 277 277 278 277 274 273 271
255 260 263 269 275 277 280 285 286 288 290 290 292 292 289 288 288 287 289 293 292 293 294 298 300 301 301 301 300 299 294 292 291 289 286 283 281 281 281 281 280 279 278 276 277 277 275 272 270
258 261 262 269 276 279 281 282 285 289 291 289 290 292 290 290 290 287 288 291 294 292 295 298 300 302 301 301 300 299 295 292 290 288 286 282 279 280 279 281 281 280 278 276 276 275 276 272 270
258 263 264 267 273 280 282 283 286 288 291 292 292 293 293 293 291 290 290 291 293 293 296 298 298 299 300 301 301 300 297 293 290 286 286 283 279 279 280 281 281 280 277 275 274 274 274 273 269
257 264 268 273 276 280 283 284 287 289 289 293 294 293 293 293 292 290 291 292 293 290 294 296 297 299 299 300 301 301 299 294 290 287 286 284 281 279 281 281 281 280 277 274 273 273 273 273 269
263 267 269 273 276 279 282 282 285 287 289 292 293 293 292 293 293 292 290 291 293 292 292 294 296 298 300 301 302 302 300 296 291 288 286 283 281 281 282 281 281 279 276 273 271 271 271 273 270
262 267 273 275 279 285 282 282 285 287 288 288 291 293 292 293 291 290 290 289 290 291 289 291 294 296 298 300 301 300 300 298 292 290 286 282 281 282 281 281 282 279 276 273 271 269 270 272 271
266 267 270 274 276 284 285 285 285 289 294 290 290 291 292 292 290 291 290 289 288 289 290 292 294 295 296 298 300 300 300 298 293 290 287 284 281 282 281 283 281 278 275 273 273 272 270 271 270
267 264 262 263 263 267 280 287 286 290 294 293 290 291 291 292 292 291 291 289 290 291 290 291 293 293 293 294 297 298 298 297 293 290 288 284 282 283 282 281 280 279 276 275 275 274 272 271 271
267 266 263 264 269 273 277 280 285 291 293 295 294 293 292 291 292 290 290 290 290 289 289 290 290 290 290 291 295 296 296 296 294 291 288 285 283 283 283 280 279 278 277 275 274 273 272 272 272
269 270 269 268 269 271 275 277 283 286 291 294 295 292 290 290 291 290 289 288 288 289 288 289 290 290 292 293 293 294 294 293 294 291 288 286 284 285 285 283 279 279 278 276 275 273 272 273 274
268 269 267 267 268 269 270 274 280 283 287 291 293 292 290 289 289 288 287 286 287 289 290 289 289 290 291 293 293 293 293 292 292 291 288 287 286 285 285 285 282 280 278 276 274 274 274 275 275
Height
5855 5855 5855 5856 5856 5856 5855 5855 5855 5855 5855 5855 5855 5855 5855 5855 5857 5859 5857 5855 5856 5856 5856 5856 5856 5856 5856 5856 5856 5856 5857 5857 5857 5857 5857 5858 5858 5859 5859 5860 5860 5861 5861 5861 5862 5861 5862 5862 5863
5855 5855 5855 5855 5855 5854 5854 5854 5854 5854 5854 5854 5854 5854 5854 5854 5855 5855 5855 5855 5855 5855 5855 5855 5855 5856 5856 5856 5856 5856 5856 5856 5856 5856 5857 5857 5857 5858 5859 5859 5860 5860 5860 5861 5861 5861 5861 5861 5862
5854 5854 5855 5855 5853 5854 5854 5853 5853 5853 5853 5853 5854 5854 5854 5854 5854 5854 5854 5854 5854 5855 5855 5855 5855 5855 5855 5855 5855 5855 5855 5855 5855 5856 5856 5856 5856 5857 5857 5858 5859 5859 5859 5859 5860 5860 5860 5861 5861
5853 5854 5854 5854 5852 5853 5853 5853 5852 5852 5853 5853 5853 5853 5853 5853 5853 5853 5853 5853 5854 5854 5854 5854 5854 5854 5854 5854 5854 5854 5854 5854 5855 5855 5855 5855 5855 5856 5856 5857 5857 5858 5858 5858 5859 5859 5859 5860 5860
5853 5853 5853 5852 5852 5852 5852 5852 5851 5851 5852 5852 5852 5852 5852 5853 5853 5852 5852 5852 5853 5853 5853 5853 5853 5853 5853 5853 5853 5853 5853 5853 5854 5854 5854 5854 5855 5855 5855 5856 5856 5857 5857 5857 5858 5858 5858 5859 5859
5852 5852 5852 5851 5851 5851 5851 5851 5851 5851 5851 5851 5851 5851 5852 5852 5852 5852 5851 5852 5852 5852 5852 5852 5852 5852 5852 5852 5852 5852 5852 5852 5852 5853 5853 5853 5853 5854 5854 5854 5855 5855 5856 5856 5856 5857 5857 5858 5858
5852 5851 5850 5850 5850 5851 5851 5850 5850 5850 5850 5850 5850 5851 5851 5851 5851 5851 5851 5851 5851 5851 5851 5851 5851 5851 5851 5851 5851 5851 5851 5851 5851 5851 5852 5852 5852 5852 5852 5852 5853 5853 5854 5854 5855 5855 5855 5856 5857
5850 5851 5850 5849 5849 5850 5850 5850 5850 5850 5850 5850 5850 5850 5850 5850 5850 5850 5849 5849 5849 5849 5849 5849 5850 5849 5849 5850 5850 5849 5849 5849 5849 5850 5850 5850 5850 5850 5851 5851 5851 5851 5852 5852 5853 5853 5853 5854 5854
5849 5850 5849 5849 5849 5849 5849 5849 5849 5849 5849 5849 5849 5849 5849 5849 5849 5848 5848 5848 5848 5848 5848 5848 5848 5848 5848 5848 5848 5848 5848 5848 5848 5848 5848 5848 5848 5848 5849 5849 5849 5849 5850 5850 5851 5851 5851 5852 5852
5848 5848 5849 5849 5849 5849 5849 5848 5848 5848 5848 5848 5848 5848 5848 5847 5847 5847 5847 5847 5847 5847 5846 5846 5846 5846 5846 5846 5846 5846 5846 5846 5846 5846 5846 5846 5846 5846 5847 5847 5847 5847 5848 5848 5848 5849 5849 5849 5850
5847 5847 5848 5847 5848 5848 5848 5848 5848 5848 5848 5848 5847 5847 5847 5846 5846 5846 5846 5845 5845 5845 5845 5844 5844 5844 5844 5844 5844 5844 5844 5844 5844 5844 5844 5844 5844 5844 5844 5845 5845 5845 5845 5845 5846 5846 5846 5847 5847
5846 5847 5847 5847 5847 5847 5847 5847 5847 5847 5847 5847 5846 5846 5845 5845 5844 5844 5844 5844 5844 5843 5843 5843 5843 5842 5842 5842 5842 5842 5842 5842 5841 5842 5841 5841 5841 5841 5842 5842 5842 5843 5843 5843 5843 5844 5844 5844 5844
5845 5846 5846 5846 5846 5846 5846 5846 5846 5846 5846 5846 5845 5845 5845 5844 5843 5843 5843 5843 5842 5842 5841 5841 5841 5841 5840 5840 5840 5840 5839 5839 5839 5839 5839 5839 5839 5839 5839 5839 5840 5840 5840 5840 5841 5841 5841 5841 5842
5844 5844 5844 5845 5845 5845 5845 5845 5845 5845 5844 5844 5844 5844 5843 5843 5842 5842 5842 5841 5841 5840 5840 5839 5839 5839 5838 5838 5838 5837 5836 5836 5836 5836 5836 5836 5836 5836 5836 5837 5837 5837 5837 5837 5838 5838 5838 5838 5839
5842 5842 5843 5843 5843 5843 5844 5844 5843 5843 5843 5843 5842 5842 5842 5842 5841 5840 5840 5840 5839 5839 5838 5837 5837 5836 5836 5836 5835 5835 5833 5833 5832 5833 5833 5833 5833 5833 5833 5833 5833 5834 5834 5834 5834 5835 5835 5835 5836
5840 5841 5841 5842 5842 5842 5843 5842 5841 5841 5841 5841 5841 5841 5840 5840 5839 5838 5838 5838 5837 5836 5836 5835 5835 5834 5834 5833 5833 5832 5831 5831 5830 5830 5830 5830 5830 5830 5830 5830 5830 5830 5831 5831 5831 5831 5832 5832 5832
5839 5839 5839 5840 5840 5840 5840 5840 5840 5839 5839 5839 5839 5839 5838 5838 5837 5837 5836 5836 5834 5834 5834 5833 5833 5832 5832 5831 5830 5830 5829 5828 5828 5827 5827 5827 5827 5826 5826 5826 5827 5827 5827 5827 5828 5828 5828 5828 5829
5837 5838 5838 5838 5838 5838 5838 5838 5838 5838 5837 5837 5837 5837 5836 5836 5835 5834 5833 5833 5832 5832 5831 5831 5830 5830 5829 5828 5827 5827 5826 5825 5824 5824 5824 5823 5823 5823 5823 5823 5823 5823 5824 5824 5824 5824 5824 5825 5825
5835 5836 5836 5836 5836 5836 5836 5836 5836 5835 5835 5835 5835 5834 5834 5833 5832 5832 5830 5830 5830 5829 5829 5828 5827 5827 5826 5825 5824 5823 5822 5822 5821 5820 5820 5820 5819 5819 5819 5819 5820 5820 5820 5820 5820 5820 5821 5821 5821
5833 5834 5834 5834 5834 5834 5834 5834 5834 5833 5833 5833 5832 5831 5831 5830 5830 5829 5828 5827 5827 5826 5826 5825 5824 5823 5822 5821 5820 5820 5819 5818 5817 5817 5816 5815 5815 5815 5815 5816 5816 5816 5816 5817 5817 5817 5817 5817 5817
5831 5831 5831 5832 5831 5831 5832 5832 5831 5831 5830 5830 5829 5829 5828 5827 5827 5826 5825 5824 5823 5823 5822 5821 5821 5820 5819 5818 5817 5815 5814 5814 5813 5812 5812 5811 5811 5811 5812 5812 5812 5812 5812 5813 5813 5813 5813 5813 5813
5828 5828 5829 5829 5829 5829 5829 5829 5828 5828 5828 5827 5827 5826 5825 5824 5823 5822 5822 5821 5820 5819 5819 5818 5817 5816 5815 5814 5813 5812 5811 5810 5809 5808 5807 5807 5807 5807 5807 5807 5808 5808 5808 5808 5809 5809 5809 5809 5809
5825 5826 5826 5826 5826 5826 5826 5826 5826 5824 5824 5824 5824 5823 5822 5821 5820 5820 5819 5818 5817 5816 5815 5815 5814 5813 5812 5811 5809 5808 5807 5806 5805 5804 5803 5803 5803 5803 5803 5803 5803 5803 5803 5804 5804 5804 5805 5805 5805
5822 5823 5823 5823 5823 5824 5824 5823 5823 5821 5821 5821 5821 5820 5819 5818 5817 5816 5816 5815 5813 5812 5812 5811 5810 5809 5808 5807 5806 5805 5803 5802 5801 5800 5799 5799 5799 5799 5799 5798 5799 5799 5799 5799 5799 5800 5800 5800 5801
5820 5821 5821 5820 5820 5821 5821 5820 5821 5818 5818 5818 5817 5817 5816 5815 5814 5813 5812 5811 5810 5809 5808 5807 5807 5806 5805 5804 5802 5801 5799 5798 5797 5796 5795 5795 5795 5794 5794 5794 5794 5794 5794 5794 5795 5795 5796 5796 5796
5817 5818 5819 5819 5819 5819 5818 5817 5818 5816 5815 5814 5814 5813 5812 5811 5810 5809 5808 5807 5807 5806 5805 5804 5803 5802 5801 5800 5798 5797 5796 5794 5793 5792 5791 5791 5790 5790 5789 5789 5789 5790 5789 5790 5790 5790 5790 5791 5791
5814 5814 5815 5815 5815 5815 5815 5815 5813 5812 5812 5811 5810 5809 5809 5807 5806 5804 5804 5804 5803 5802 5801 5800 5799 5798 5797 5796 5794 5793 5791 5790 5789 5788 5787 5786 5786 5785 5785 5785 5785 5784 5784 5784 5785 5785 5785 5786 5786
5811 5811 5812 5812 5812 5812 5813 5812 5811 5809 5808 5807 5806 5806 5804 5803 5802 5801 5800 5799 5799 5798 5797 5796 5795 5794 5792 5791 5790 5788 5787 5786 5784 5783 5782 5782 5781 5780 5780 5780 5780 5779 5779 5779 5779 5780 5780 5780 5780
5808 5808 5808 5808 5809 5809 5809 5810 5807 5805 5804 5803 5802 5801 5800 5799 5798 5797 5796 5795 5794 5793 5792 5791 5790 5789 5788 5786 5785 5784 5782 5781 5780 5778 5778 5777 5776 5776 5775 5775 5774 5774 5774 5773 5773 5774 5774 5774 5775
5803 5804 5804 5805 5805 5804 5804 5807 5803 5801 5800 5799 5798 5796 5795 5794 5793 5792 5791 5790 5789 5788 5787 5786 5785 5784 5783 5782 5780 5779 5777 5776 5775 5774 5773 5772 5771 5771 5770 5769 5769 5768 5768 5767 5767 5767 5768 5768 5768